Starlink 30074

operational
NORAD ID: 57508 Int'l Des: 2023-113 Owner: SPXS Country: US Constellation: starlink
LEOCIRCULAR

关于 Starlink 30074

正在加载描述...

实时位置

正在加载3D地球...

即将过境

高度历史

Altitude vs Time

uPlot chart will show altitude changes over time

两行轨道根数

1 57508U 23113P 25308.38684279 -.00001536 00000-0 -98715-4 0 9991
2 57508 43.0075 337.9964 0000440 217.2852 142.7960 15.02524559124602
Epoch: Nov 4, 2025 • Age: 14 hours

当前状态

高度 559.6 km
速度 7.58 km/s
星下点 -3.15°S, 67.42°W
发射日期 Aug 7, 2023
运行时间 2.2 years
类型 internet

技术详情

分类 Payload
质量 730.00 kg
干质量 700.00 kg
总质量 730.00 kg
长度 0.30 m
直径 4.10 m
跨度 29.00 m
形状 Box + pan
制造商 SPXS
平台类型 Starlink V2M
阶段状态 In Orbit
所有者/国家 SPXS/US

大型星座

Loading constellations...